Regional Weather Roundup
Issued by NWS Albany, NY

Home | Current Version | Previous Version | Text Only | Print | Product List | Glossary On
Versions: 1 2 3 4 5 6 7 8 9 10 11 12 13 14 15 16 17 18 19 20 21 22 23 24 25 26 27 28
000
ASUS41 KALY 240910
RWRALY

NEW YORK STATE HOURLY WEATHER ROUNDUP
NATIONAL WEATHER SERVICE ALBANY NY
500 AM EDT WED MAY 24 2017

NOTE: "FAIR" INDICATES FEW OR NO CLOUDS BELOW 12,000 FEET WITH NO
SIGNIFICANT WEATHER AND/OR NO OBSTRUCTIONS TO VISIBILITY.

NYZ032-033-038>043-046>054-057>066-NYZ062>081-082-084-241000-
EAST


CITY           SKY/WX    TMP DP  RH WIND       PRES   REMARKS
ALBANY         CLOUDY    54  51  90 N3        29.76S
GLENS FALLS    NOT AVBL
POUGHKEEPSIE   CLOUDY    53  51  93 CALM      29.72F
NEWBURGH       MOCLDY    55  54  94 CALM      29.74F
MONTGOMERY     PTCLDY    53  51  93 CALM      29.73S
WHITE PLAINS   CLOUDY    56  53  90 CALM      29.73F
ISLIP          LGT RAIN  55  55 100 E5        29.73F
NEW YORK CITY  LGT RAIN  59  51  75 SE7       29.72F
CENTRAL PARK   LGT RAIN  59  50  72 VRB3      29.75F
$$

NYZ005>009-017-018-044>046-055-056-241000-
CENTRAL


CITY           SKY/WX    TMP DP  RH WIND       PRES   REMARKS
FULTON         CLOUDY    53  51  93 CALM      29.74R
SYRACUSE       MOCLDY    52  49  89 E5        29.73S
ROME           MOCLDY    50  48  93 SE3       29.77R
ELMIRA         CLOUDY    47  44  90 E3        29.73F
BINGHAMTON     CLOUDY    51  46  83 CALM      29.75R
MONTICELLO     CLOUDY    48  48 100 CALM      29.77R
$$

NYZ026>034-041>043-087-241000-
NORTH


CITY           SKY/WX    TMP DP  RH WIND       PRES   REMARKS
WATERTOWN      CLOUDY    49  49 100 E3        29.73R
FORT DRUM      NOT AVBL
OGDENSBURG     FAIR      49  48  96 CALM      29.74R
MASSENA        MOCLDY    46  45  96 CALM      29.76R
SARANAC LAKE   FOG       37  37 100 N3        29.77S VSB 3/4
PLATTSBURGH    CLOUDY    48  47  96 CALM      29.76R
$$

NYZ001>004-010>016-019>021-085-241000-
WEST


CITY           SKY/WX    TMP DP  RH WIND       PRES   REMARKS
NIAGARA FALLS  CLOUDY    56  47  71 E6        29.69F
BUFFALO        CLOUDY    58  48  69 SE7       29.69F
DUNKIRK        CLOUDY    57  47  69 E6        29.68F
JAMESTOWN      CLOUDY    54  43  66 SE3       29.69F
WELLSVILLE     CLOUDY    51  44  77 CALM      29.73F
ROCHESTER      CLOUDY    56  50  80 CALM      29.71F
PENN YAN       CLOUDY    51  47  86 CALM      29.73F
$$

             KEY
       WCI = WIND CHILL INDEX
       VSB = VISIBILITY
       HX  = HEAT INDEX
$$




USA.gov is the U.S. government's official web portal to all federal, state and local government web resources and services.